TimeMST,TemperatureF,Dew PointF,Humidity,Sea Level PressureIn,VisibilityMPH,Wind Direction,Wind SpeedMPH,Gust SpeedMPH,PrecipitationIn,Events,Conditions,WindDirDegrees,DateUTC
12:51 AM,28.9,24.1,82,30.32,10.0,Calm,Calm,-,N/A,,Overcast,0,2013-02-14 07:51:00
2:51 AM,28.0,24.1,85,30.35,10.0,North,3.5,-,N/A,,Mostly Cloudy,350,2013-02-14 09:51:00
3:51 AM,24.1,21.0,88,30.36,10.0,Calm,Calm,-,N/A,,Mostly Cloudy,0,2013-02-14 10:51:00
5:51 AM,19.9,18.0,92,30.42,10.0,Calm,Calm,-,N/A,,Clear,0,2013-02-14 12:51:00
6:51 AM,16.0,14.0,92,30.44,10.0,Calm,Calm,-,N/A,,Clear,0,2013-02-14 13:51:00
7:51 AM,16.0,14.0,92,30.47,10.0,Calm,Calm,-,N/A,,Clear,0,2013-02-14 14:51:00
8:51 AM,19.0,15.1,85,30.48,10.0,NW,4.6,-,N/A,,Clear,310,2013-02-14 15:51:00
9:51 AM,25.0,17.1,72,30.48,10.0,NW,4.6,-,N/A,,Clear,320,2013-02-14 16:51:00
10:51 AM,25.0,18.0,75,30.48,10.0,South,4.6,-,N/A,,Partly Cloudy,170,2013-02-14 17:51:00
11:51 AM,30.0,19.0,64,30.46,10.0,SSE,3.5,-,N/A,,Clear,160,2013-02-14 18:51:00
12:51 PM,32.0,21.0,64,30.45,10.0,South,4.6,-,N/A,,Clear,170,2013-02-14 19:51:00
1:51 PM,37.0,16.0,42,30.42,10.0,Calm,Calm,-,N/A,,Scattered Clouds,0,2013-02-14 20:51:00
2:51 PM,36.0,17.1,46,30.42,10.0,South,3.5,-,N/A,,Overcast,180,2013-02-14 21:51:00
3:51 PM,37.0,18.0,46,30.43,10.0,West,9.2,-,N/A,,Overcast,270,2013-02-14 22:51:00
4:51 PM,36.0,19.9,52,30.47,10.0,West,8.1,-,N/A,,Overcast,270,2013-02-14 23:51:00
5:51 PM,34.0,21.0,59,30.47,10.0,West,6.9,-,N/A,,Overcast,280,2013-02-15 00:51:00
6:51 PM,34.0,21.0,59,30.50,10.0,Calm,Calm,-,N/A,,Overcast,0,2013-02-15 01:51:00
7:51 PM,33.1,21.9,64,30.51,10.0,Calm,Calm,-,N/A,,Overcast,0,2013-02-15 02:51:00
8:51 PM,33.1,23.0,66,30.51,10.0,Calm,Calm,-,N/A,,Overcast,0,2013-02-15 03:51:00
9:51 PM,30.9,23.0,72,30.50,10.0,Calm,Calm,-,N/A,,Overcast,0,2013-02-15 04:51:00
10:51 PM,30.9,23.0,72,30.52,10.0,NNW,3.5,-,N/A,,Overcast,340,2013-02-15 05:51:00
11:51 PM,28.9,24.1,82,30.51,10.0,Calm,Calm,-,N/A,,Overcast,0,2013-02-15 06:51:00